Tracking 20041 objects as of 22-Nov-2019
Live streaming from Space Station
objects crossing your sky now

FALCON 9 R/B


FALCON 9 R/B is no longer on orbit


NORAD ID: 39501
Int'l Code: 2014-002B
Perigee: N/A
Apogee: N/A
Inclination: N/A
Period: N/A
Semi major axis: N/A
RCS: N/A
Launch date: January 6, 2014
Source: United States (US)
Launch site: AIR FORCE EASTERN TEST RANGE (AFETR)
Decay date: 2014-05-28

Note: This is a ROCKET BODY
aabbcc
Your satellite tracking list
Your tracking list is empty




NASA's NSSDC Master Catalog

Two Line Element Set (TLE):
1 39501U 14002B   14148.59798124  .01958819 -12495-4  10000-3 0  9999
2 39501 019.1657 249.0100 4656983 210.8048 005.1257 06.52590019   949
Source of the keplerian elements: AFSPC